This demonstration page uses our WeatherBlox Daily Observations layout. Learn more.

Hourly Observations for April 17, 2018

Temp ( °F °C ) Dew Point ( °F °C ) Humidity (%) Winds ( mph kmh ) Pressure ( in mb ) Visibility ( mi km ) Precip ( " mm )
12:15 am 00:15 Cloudy 43 6 32 0 66 66 WNW 15 24 29.8 1009 10 16.09344 0 0
12:35 am 00:35 Cloudy 41 5 30 -1 66 66 NW 14 22 29.8 1009 10 16.09344 0 0
12:55 am 00:55 Cloudy 41 5 28 -2 61 61 WNW 20 31 29.8 1009 10 16.09344 0 0
1:15 am 01:15 Cloudy 41 5 28 -2 61 61 NW 18 30 29.8 1009 10 16.09344 0 0
1:35 am 01:35 Cloudy 41 5 30 -1 66 66 NW 21 33 29.83 1010 10 16.09344 0 0
1:55 am 01:55 Cloudy 41 5 28 -2 61 61 NW 16 26 29.83 1010 10 16.09344 0 0
2:15 am 02:15 Cloudy 39 4 28 -2 65 65 WNW 17 28 29.83 1010 10 16.09344 0 0
2:35 am 02:35 Cloudy 39 4 28 -2 65 65 NW 21 33 29.83 1010 10 16.09344 0 0
2:55 am 02:55 Cloudy 39 4 27 -3 61 61 WNW 16 26 29.83 1010 10 16.09344 0 0
3:15 am 03:15 Cloudy 39 4 28 -2 65 65 WNW 18 30 29.83 1010 10 16.09344 0 0
3:35 am 03:35 Cloudy 39 4 28 -2 65 65 NW 12 19 29.83 1010 10 16.09344 0 0
3:55 am 03:55 Cloudy 39 4 28 -2 65 65 NW 14 22 29.83 1010 10 16.09344 0 0
4:15 am 04:15 Cloudy 39 4 28 -2 65 65 WNW 14 22 29.83 1010 10 16.09344 0 0
4:35 am 04:35 Cloudy 39 4 28 -2 65 65 NW 14 22 29.83 1010 10 16.09344 0 0
4:55 am 04:55 Cloudy 39 4 28 -2 65 65 WNW 16 26 29.83 1010 10 16.09344 0 0
5:15 am 05:15 Cloudy 39 4 28 -2 65 65 WNW 16 26 29.83 1010 10 16.09344 0 0
5:35 am 05:35 Cloudy 39 4 28 -2 65 65 NW 15 24 29.83 1010 10 16.09344 0 0
5:55 am 05:55 Cloudy 39 4 28 -2 65 65 NW 21 33 29.83 1010 10 16.09344 0 0
6:15 am 06:15 Cloudy 39 4 28 -2 65 65 NW 14 22 29.83 1010 10 16.09344 0 0
6:35 am 06:35 Cloudy 39 4 28 -2 65 65 WNW 10 17 29.83 1010 10 16.09344 0 0
6:55 am 06:55 Cloudy 39 4 28 -2 65 65 NW 13 20 29.83 1010 10 16.09344 0 0
7:15 am 07:15 Cloudy 39 4 28 -2 65 65 WNW 14 22 29.85 1011 10 16.09344 0 0
7:35 am 07:35 Cloudy 39 4 28 -2 65 65 WNW 17 28 29.85 1011 10 16.09344 0 0
7:55 am 07:55 Cloudy 39 4 28 -2 65 65 WNW 15 24 29.85 1011 10 16.09344 0 0
8:15 am 08:15 Cloudy 41 5 28 -2 61 61 WNW 16 26 29.85 1011 10 16.09344 0 0
8:35 am 08:35 Cloudy 41 5 28 -2 61 61 WNW 16 26 29.85 1011 10 16.09344 0 0
8:55 am 08:55 Cloudy 39 4 28 -2 65 65 WNW 14 22 29.85 1011 10 16.09344 0 0
9:15 am 09:15 Cloudy 41 5 28 -2 61 61 WNW 12 19 29.85 1011 10 16.09344 0 0
9:35 am 09:35 Cloudy 41 5 30 -1 66 66 W 8 13 29.88 1012 10 16.09344 0 0
9:55 am 09:55 Cloudy 41 5 30 -1 66 66 WSW 8 13 29.85 1011 10 16.09344 0 0
10:15 am 10:15 Cloudy 41 5 28 -2 61 61 W 12 19 29.85 1011 10 16.09344 0 0
10:35 am 10:35 Cloudy 43 6 30 -1 61 61 W 8 13 29.85 1011 10 16.09344 0 0
10:55 am 10:55 Cloudy 43 6 30 -1 61 61 W 7 11 29.85 1011 10 16.09344 0 0
11:15 am 11:15 Cloudy 43 6 28 -2 57 57 W 8 13 29.85 1011 10 16.09344 0 0
11:35 am 11:35 Cloudy 43 6 28 -2 57 57 W 15 24 29.85 1011 10 16.09344 0 0
11:55 am 11:55 Cloudy 43 6 28 -2 57 57 W 21 33 29.85 1011 10 16.09344 0 0
12:15 pm 12:15 Cloudy 45 7 30 -1 57 57 W 15 24 29.83 1010 10 16.09344 0 0
12:35 pm 12:35 Cloudy 43 6 28 -2 57 57 W 13 20 29.83 1010 10 16.09344 0 0
12:55 pm 12:55 Cloudy 45 7 28 -2 53 53 WNW 17 28 29.83 1010 10 16.09344 0 0
1:15 pm 13:15 Cloudy 45 7 28 -2 53 53 WNW 16 26 29.83 1010 10 16.09344 0 0
1:35 pm 13:35 Cloudy 45 7 28 -2 53 53 WNW 17 28 29.83 1010 10 16.09344 0 0
1:55 pm 13:55 Cloudy 45 7 28 -2 53 53 W 14 22 29.83 1010 10 16.09344 0 0
2:15 pm 14:15 Cloudy 45 7 28 -2 53 53 W 16 26 29.8 1009 10 16.09344 0 0
2:35 pm 14:35 Cloudy 45 7 28 -2 53 53 W 20 31 29.8 1009 10 16.09344 0 0
2:55 pm 14:55 Cloudy 45 7 30 -1 57 57 WNW 21 33 29.8 1009 10 16.09344 0 0
3:15 pm 15:15 Cloudy 45 7 28 -2 53 53 W 22 35 29.8 1009 10 16.09344 0 0
3:35 pm 15:35 Cloudy 46 8 30 -1 53 53 W 14 22 29.77 1008 10 16.09344 0 0
3:55 pm 15:55 Cloudy 45 7 28 -2 53 53 WNW 21 33 29.8 1009 10 16.09344 0 0
4:15 pm 16:15 Cloudy 45 7 28 -2 53 53 WNW 15 24 29.8 1009 10 16.09344 0 0
4:35 pm 16:35 Cloudy 45 7 30 -1 57 57 NW 15 24 29.8 1009 10 16.09344 0 0
4:55 pm 16:55 Cloudy 45 7 30 -1 57 57 WNW 10 17 29.8 1009 10 16.09344 0 0
5:15 pm 17:15 Cloudy 45 7 30 -1 57 57 WNW 17 28 29.8 1009 10 16.09344 0 0
5:35 pm 17:35 Cloudy 45 7 30 -1 57 57 NW 14 22 29.8 1009 10 16.09344 0 0
5:55 pm 17:55 Cloudy 45 7 30 -1 57 57 WNW 10 17 29.8 1009 10 16.09344 0 0
6:15 pm 18:15 Cloudy 45 7 30 -1 57 57 WNW 12 19 29.8 1009 10 16.09344 0 0
6:35 pm 18:35 Cloudy 45 7 30 -1 57 57 WNW 8 13 29.83 1010 10 16.09344 0 0
6:55 pm 18:55 Cloudy 43 6 30 -1 61 61 WNW 6 9 29.83 1010 10 16.09344 0 0
7:15 pm 19:15 Cloudy 45 7 30 -1 57 57 WNW 17 28 29.83 1010 10 16.09344 0 0
7:35 pm 19:35 Cloudy 45 7 28 -2 53 53 NW 16 26 29.83 1010 10 16.09344 0 0
7:55 pm 19:55 Cloudy 43 6 30 -1 61 61 NW 21 33 29.83 1010 10 16.09344 0 0
8:15 pm 20:15 Cloudy 43 6 30 -1 61 61 NW 16 26 29.85 1011 10 16.09344 0 0
8:35 pm 20:35 Cloudy 43 6 30 -1 61 61 NW 12 19 29.85 1011 10 16.09344 0 0
8:55 pm 20:55 Cloudy 43 6 30 -1 61 61 NW 22 35 29.88 1012 10 16.09344 0 0
9:15 pm 21:15 Cloudy 43 6 28 -2 57 57 NW 23 37 29.88 1012 10 16.09344 0 0
9:35 pm 21:35 Cloudy 41 5 28 -2 61 61 NW 10 17 29.91 1013 10 16.09344 0 0
9:55 pm 21:55 Cloudy 41 5 27 -3 57 57 NW 6 9 29.91 1013 10 16.09344 0 0
10:15 pm 22:15 Cloudy 41 5 27 -3 57 57 WNW 12 19 29.91 1013 10 16.09344 0 0
10:35 pm 22:35 Mostly Cloudy 39 4 28 -2 65 65 NW 16 26 29.91 1013 10 16.09344 0 0
10:55 pm 22:55 Clear 37 3 28 -2 70 70 NW 5 7 29.91 1013 10 16.09344 0 0
11:15 pm 23:15 Partly Cloudy 37 3 27 -3 65 65 NW 5 7 29.94 1014 10 16.09344 0 0
11:35 pm 23:35 Clear 36 2 28 -2 75 75 W 7 11 29.91 1013 10 16.09344 0 0
11:55 pm 23:55 Partly Cloudy 37 3 27 -3 65 65 Calm 29.94 1014 10 16.09344 0 0

Powered by AerisWeather